Home > Weather > Syktyvkar > Past weeks

Flag for Russia Past Weather in Syktyvkar, Russia — Yesterday and Last 2 Weeks

Now
43 °F

Sunny.


Feels Like: 41 °F
Forecast: 42 / 52 °F
Wind: 3 mph from Southwest

Location: Syktyvkar Airport

Current Time: May 29, 2016 at 5:03:28 AM

Latest Report: May 29, 2016 at 4:00 AM


Visibility: 10 mi

Pressure: 30.21 "Hg

Humidity: 87%

Dew Point: 39 °F

Location of SyktyvkarLocation

Past Weather in Syktyvkar — Graph

°F

Syktyvkar Temperature Yesterday

Maximum temperature yesterday: 66 °F (at 4:00 PM)
Minimum temperature yesterday: 43 °F (at 2:00 AM)
Average temperature yesterday: 55 °F

High & Low Weather Summary for the Past Weeks

 TemperatureHumidityPressure
High81 °F (May 22, 12:00 PM)94% (May 23, 10:30 PM)30.33 "Hg (May 23, 10:30 PM)
Low34 °F (May 14, 4:00 AM)12% (May 16, 4:00 PM)29.86 "Hg (May 23, 3:00 AM)
Average60 °F48%30.08 "Hg
* Reported May 14 4:00 AM — May 29 4:00 AM, Syktyvkar, Weather by CustomWeather, © 2016

Note: Actual official high and low records may vary slightly from our data, if they occured in-between our weather recording intervals... More about our weather records

Advertising

Syktyvkar Weather History for the Previous 24 Hours

Scroll right to see more
 ConditionsComfort  
Time TempWeatherWind HumidityBarometerVisibility
4:00 AM
Sun, May 29
43 °FSunny.3 mph87%30.21 "Hg10 mi
3:30 AM41 °FSunny.1 mph93%30.24 "Hg10 mi
3:00 AM39 °FSunny.1 mph93%30.24 "Hg10 mi
2:30 AM43 °FFog.1 mph87%30.24 "Hg6 mi
2:00 AM43 °FFog.No wind93%30.24 "Hg6 mi
1:30 AM43 °FFog.No wind93%30.27 "Hg5 mi
1:00 AM45 °FFog.No wind87%30.27 "Hg5 mi
12:30 AM46 °FClear.1 mph87%30.24 "Hg5 mi
12:00 AM45 °FClear.1 mph87%30.24 "Hg6 mi
11:00 PM
Sat, May 28
45 °FClear.1 mph87%30.24 "Hg10 mi
10:30 PM50 °FClear.1 mph76%30.24 "Hg10 mi
10:00 PM48 °FClear.1 mph71%30.24 "Hg10 mi
9:00 PM52 °FClear.1 mph67%30.24 "Hg10 mi
8:00 PM61 °FSunny.3 mph39%30.24 "Hg10 mi
7:30 PM61 °FSunny.6 mph39%30.24 "Hg10 mi
7:00 PM63 °FPassing clouds.3 mph34%30.24 "HgN/A
6:30 PM64 °FPassing clouds.6 mph32%30.24 "HgN/A
6:00 PM64 °FSunny.6 mph30%30.24 "Hg10 mi
5:30 PM64 °FPassing clouds.6 mph30%30.27 "HgN/A
5:00 PM64 °FPassing clouds.3 mph30%30.27 "HgN/A
4:30 PM66 °FPassing clouds.6 mph28%30.27 "HgN/A
4:00 PM66 °FSunny.3 mph28%30.27 "Hg10 mi
3:30 PM64 °FPassing clouds.6 mph28%30.27 "HgN/A
3:00 PM64 °FSunny.8 mph30%30.27 "Hg10 mi
2:30 PM64 °FSunny.8 mph30%30.30 "Hg10 mi
2:00 PM64 °FPassing clouds.8 mph32%30.30 "HgN/A
1:30 PM64 °FPassing clouds.6 mph32%30.30 "HgN/A
1:00 PM63 °FSunny.6 mph37%30.30 "Hg10 mi
12:30 PM63 °FPassing clouds.6 mph34%30.30 "HgN/A
12:00 PM61 °FPassing clouds.6 mph36%30.30 "HgN/A
11:30 AM61 °FPassing clouds.6 mph39%30.30 "HgN/A
11:00 AM59 °FPassing clouds.6 mph42%30.30 "HgN/A
10:00 AM57 °FSunny.8 mph44%30.30 "Hg10 mi
9:30 AM55 °FSunny.8 mph47%30.30 "Hg10 mi
9:00 AM54 °FSunny.10 mph51%30.30 "Hg10 mi
8:30 AM54 °FSunny.13 mph47%30.30 "Hg10 mi
8:00 AM52 °FSunny.10 mph50%30.33 "Hg10 mi
7:00 AM50 °FPassing clouds.6 mph58%30.33 "HgN/A
6:30 AM48 °FSunny.6 mph66%30.30 "Hg10 mi
6:00 AM48 °FSunny.8 mph62%30.30 "Hg10 mi
5:30 AM46 °FSunny.8 mph66%30.30 "Hg10 mi
5:00 AM45 °FSunny.8 mph71%30.30 "Hg10 mi
Weather by CustomWeather, © 2016

See weather overviewHow to use our weather pages